Find Starlink 30321

NORAD ID: 57679 Int'l Des: 2023-124 Owner: SPXS Country: US Constellation: starlink operational
LEOCIRCULAR

リアルタイム位置

3D地球を読み込み中...

Starlink 30321について

説明を読み込み中...

次回通過

Passes for default location (London). Set your location on the main map for personalized predictions.

高度履歴

Loading altitude history...

軌道要素

1 57679U 23124S 26125.92216035 .00003260 00000-0 12222-3 0 9993
2 57679 53.1602 300.7556 0001080 106.7388 253.3731 15.30174086152334
Epoch: May 5, 2026 • Age: 13 hours

現在のステータス

高度 479.2 km
速度 7.63 km/s
衛星直下点 -14.46°S, 91.89°E
打ち上げ日 Aug 22, 2023
運用期間 2.7 years
タイプ internet

技術仕様

分類 Payload
質量 730.00 kg
乾燥質量 700.00 kg
総質量 730.00 kg
長さ 0.30 m
直径 4.10 m
スパン 29.00 m
形状 Box + pan
製造者 SPXS
バスタイプ Starlink V2M
フェーズステータス In Orbit
所有者/国 SPXS/US

Most Searched